Regional Weather Roundup
Issued by NWS Newport/Morehead, NC

Current Version | Previous Version | Text Only | Print | Product List | Glossary Off
Versions: 1 2 3 4 5 6 7 8 9 10 11 12 13 14 15 16 17 18 19 20 21 22 23 24 25 26 27 28 29 30 31 32 33 34 35 36 37 38 39 40 41 42 43 44 45 46 47 48 49 50
000 ASUS42 KMHX 052225 RWRMHX WEATHER ROUNDUP FOR EASTERN NORTH CAROLINA NATIONAL WEATHER SERVICE NEWPORT/MOREHEAD CITY NC 500 PM EST THU MAR 05 2015 NOTE: "FAIR" INDICATES FEW OR NO CLOUDS BELOW 12,000 FEET WITH NO SIGNIFICANT WEATHER AND/OR OBSTRUCTIONS TO VISIBILITY NCZ015>017-031-032-045>047-102-103-052300- NORTH COAST CITY SKY/WX TMP DP RH WIND PRES REMARKS EDENTON RAIN 35 33 94 NE12G18 30.10S ELIZABETH CITY LGT RAIN 36 34 93 N15 30.13R FOG KITTY HAWK DRIZZLE 35 35 100 N13G23 30.07R MANTEO CLOUDY 35 34 95 N21G36 30.08R $$ NCZ045>047-081-094-103-104-052300- CENTRAL COAST CITY SKY/WX TMP DP RH WIND PRES REMARKS FRISCO LGT RAIN 38 38 100 N17G36 30.01R FOG SWANQUARTER N/A 37 N/A N/A NE14G31 30.03S $$ NCZ095-097-098-100-101-052300- SOUTHERN COAST CITY SKY/WX TMP DP RH WIND PRES REMARKS BEAUFORT CLOUDY 42 41 96 N15G30 30.02R CEDAR ISLAND N/A 39 N/A N/A VRB30 30.09R JACKSONVILLE LGT RAIN 45 40 82 N22G32 30.05R PINEY ISLAND N/A N/A N/A N/A MISG 30.05R WILMINGTON LGT RAIN 47 41 80 NW24G33 30.06R $$ NCZ011>013-027>030-043-044-078>080-089-090>093-098-052300- COASTAL PLAIN CITY SKY/WX TMP DP RH WIND PRES REMARKS AHOSKIE MIX PCPN 34 33 96 N8 30.09F CLINTON RAIN 38 38 97 NE14G23 30.04F ELIZABETHTOWN RAIN 40 38 93 NE6 30.04F GOLDSBORO LGT RAIN 37 37 100 E15G28 30.01F FOG GREENVILLE LGT RAIN 36 36 100 NE12G17 30.14R HAVELOCK CLOUDY 44 39 82 N18G26 30.05R KENANSVILLE RAIN 37 37 97 E14G25 30.05F KINSTON RAIN 37 36 93 N13G25 30.14R NEW BERN LGT RAIN 40 35 83 N21G31 30.10R RICHLANDS CLOUDY 39 34 81 N14G26 30.10R ROCKY MOUNT LGT RAIN 37 35 92 NE12 30.08F FOG WASHINGTON RAIN 36 34 93 N15G21 30.14R WHITEVILLE RAIN 44 41 88 N15G24 30.04R $$ AMZ130-135-150-152-154-156-158-170-250-252-270-ANZ085-086-088-633-658-670-052300- MARINE OBSERVATIONS STATION/POSITION TIME TEMP WIND PRES WAVE SWELL AIR SEA DIR/SP/G HT/PER HT/PER (UTC) (F) (DEG/KT/KT) (MB) (FT/S) (FT/S) CHESAPEAKE LIGHT 2200 34 20/ 23/ 26 1019.9 64 E VA BEACH 2150 42 53 360/ 29/ 39 1015.8 10/ 8 DUCK 2200 34 36 10/ 23/ 28 1018.0 2 E DUCK 2111 36 N/A 7/ 7 10 NE DUCK 2122 38 N/A 8/ 7 2/11 OREGON INLET 2200 35 48 350/ 20/ 30 1017.9 HATTERAS CG 2200 52 10/ 29/ 35 1016.4 CAPE LOOKOUT 2200 360/ 20/ 23 1016.0 BEAUFORT LAB 2200 42 49 20/ 17/ 24 1015.2 27 SE WRIGHTSVLE NOT AVBL 5 SE WRIGHTSVLE NOT AVBL 225 S CAPE HAT 2150 74 73 220/ 19/ 25 1017.9 7/ 7 3/10 41 SE CHARLESTON 2150 70 68 200/ 21/ 23 1013.7 7/ 6 2/10 $$

USA.gov is the U.S. government's official web portal to all federal, state and local government web resources and services.